Location: *
(46.1200°N, 11.2700°E)
Time: 03:58:41
(UTC+00:00)

USA 307 - Pass Details

Date: 02 March 2021
Orbit: 567 x 577 km, 54.0° (Epoch: 13 April)

Event Time Altitude Azimuth Distance (km) Brightness Sun altitude
Rises 18:14:33 0° 277° (W) 2,784 8.5 -13.2°
Reaches altitude 10° 18:17:01 10° 288° (WNW) 1,884 6.9 -13.6°
Maximum altitude 18:20:50 30° 351° (N) 1,037 4.3 -14.3°
Enters shadow 18:23:52 14° 47° (NE) 1,623 4.8 -14.8°
